BCS135 LIMC-EDDP

Flight info

Callsign BCS135
Flight time 1h 2m
Altitude 34000
Route PEPAG DCT ABESI N851 UTAVO DCT ROLSA/N0454F350 DCT LOKTA DCT ETAGO DCT IBAGA T435 PIBAD/N0458F310 T954 GOXLI GOXLI1R
Aircraft A306/H-SDE3FGHIRWY/LB1

Departure

Time 2026-02-18 08:27
Airport Milan Malpensa International Airport (LIMC)

Arrival

Time 2026-02-18 09:30
Airport Leipzig/Halle Airport (EDDP)
Time Latitude Longitude Altitude Speed Heading
2026-02-18 08:00 45.60985 8.72046 711 ft 0 kts 259°
2026-02-18 08:14 45.60988 8.72067 716 ft 3 kts 256°
2026-02-18 08:14 45.60994 8.72095 715 ft 3 kts 249°
2026-02-18 08:14 45.60999 8.72113 716 ft 3 kts 242°
2026-02-18 08:14 45.61009 8.72137 716 ft 3 kts 224°
2026-02-18 08:15 45.61023 8.72151 716 ft 3 kts 184°
2026-02-18 08:15 45.61031 8.72152 717 ft 1 kts 169°
2026-02-18 08:15 45.61030 8.72152 717 ft 0 kts 169°
2026-02-18 08:19 45.60986 8.72164 716 ft 15 kts 169°
2026-02-18 08:20 45.60899 8.72188 710 ft 23 kts 169°
2026-02-18 08:20 45.60848 8.72202 711 ft 23 kts 169°
2026-02-18 08:20 45.60697 8.72244 715 ft 20 kts 168°
2026-02-18 08:21 45.60629 8.72294 715 ft 9 kts 113°
2026-02-18 08:21 45.60634 8.72550 711 ft 21 kts 96°
2026-02-18 08:21 45.60617 8.72788 710 ft 27 kts 96°
2026-02-18 08:22 45.60596 8.73076 715 ft 32 kts 96°
2026-02-18 08:22 45.60657 8.73287 715 ft 23 kts 24°
2026-02-18 08:22 45.60800 8.73371 715 ft 23 kts 22°
2026-02-18 08:22 45.60969 8.73392 714 ft 27 kts 347°
2026-02-18 08:23 45.61168 8.73334 714 ft 32 kts 348°
2026-02-18 08:23 45.61389 8.73274 716 ft 31 kts 349°
2026-02-18 08:23 45.61560 8.73227 715 ft 13 kts 352°
2026-02-18 08:23 45.61620 8.73297 718 ft 14 kts 72°
2026-02-18 08:24 45.61632 8.73452 717 ft 16 kts 108°
2026-02-18 08:24 45.61585 8.73596 711 ft 16 kts 94°
2026-02-18 08:24 45.61620 8.73729 712 ft 12 kts 31°
2026-02-18 08:24 45.61674 8.73724 716 ft 0 kts 348°
2026-02-18 08:26 45.61875 8.73667 716 ft 68 kts 349°
2026-02-18 08:27 45.62582 8.73472 734 ft 135 kts 349°
2026-02-18 08:27 45.63676 8.73165 999 ft 171 kts 349°
2026-02-18 08:27 45.64843 8.72947 1984 ft 173 kts
2026-02-18 08:27 45.66068 8.73424 2609 ft 197 kts 32°
2026-02-18 08:28 45.66936 8.74972 3528 ft 204 kts 60°
2026-02-18 08:28 45.67670 8.76714 4387 ft 207 kts 56°
2026-02-18 08:28 45.68576 8.78368 5211 ft 216 kts 48°
2026-02-18 08:28 45.69653 8.79897 6268 ft 222 kts 41°
2026-02-18 08:29 45.70930 8.81297 6818 ft 248 kts 36°
2026-02-18 08:29 45.74003 8.84350 8249 ft 280 kts 33°
2026-02-18 08:29 45.75644 8.85892 9373 ft 285 kts 32°
2026-02-18 08:30 45.77322 8.87457 10389 ft 292 kts 31°
2026-02-18 08:30 45.79101 8.89087 10872 ft 315 kts 30°
2026-02-18 08:30 45.81023 8.90844 11250 ft 337 kts 30°
2026-02-18 08:30 45.83059 8.92718 11642 ft 357 kts 29°
2026-02-18 08:31 45.85199 8.94701 12032 ft 374 kts 29°
2026-02-18 08:31 45.87406 8.96760 12623 ft 383 kts 29°
2026-02-18 08:31 45.89651 8.98866 13350 ft 387 kts 28°
2026-02-18 08:31 45.91913 9.01007 14089 ft 391 kts 28°
2026-02-18 08:32 45.94197 9.03184 14717 ft 397 kts 28°
2026-02-18 08:32 45.96593 9.05149 15342 ft 394 kts 19°
2026-02-18 08:32 45.99193 9.06305 16017 ft 389 kts
2026-02-18 08:32 46.01844 9.06544 16649 ft 387 kts 354°
2026-02-18 08:33 46.04535 9.06363 17323 ft 387 kts 350°
2026-02-18 08:33 46.09926 9.05456 18537 ft 392 kts 347°
2026-02-18 08:33 46.12640 9.04933 19096 ft 396 kts 347°
2026-02-18 08:34 46.15386 9.04429 19621 ft 399 kts 348°
2026-02-18 08:34 46.18162 9.03973 20137 ft 403 kts 348°
2026-02-18 08:34 46.20967 9.03567 20654 ft 406 kts 349°
2026-02-18 08:34 46.23790 9.03186 21188 ft 408 kts 349°
2026-02-18 08:35 46.26629 9.02814 21705 ft 411 kts 349°
2026-02-18 08:35 46.29483 9.02443 22194 ft 413 kts 349°
2026-02-18 08:35 46.32359 9.02068 22625 ft 417 kts 349°
2026-02-18 08:35 46.35226 9.01688 23067 ft 420 kts 348°
2026-02-18 08:36 46.38166 9.01298 23541 ft 422 kts 348°
2026-02-18 08:36 46.41099 9.00906 23909 ft 425 kts 348°
2026-02-18 08:36 46.44056 9.00506 24253 ft 427 kts 348°
2026-02-18 08:36 46.47021 9.00110 24572 ft 428 kts 349°
2026-02-18 08:37 46.49958 8.99718 24925 ft 429 kts 348°
2026-02-18 08:37 46.55921 8.98909 25679 ft 432 kts 348°
2026-02-18 08:37 46.58925 8.98508 26017 ft 434 kts 348°
2026-02-18 08:38 46.61933 8.98109 26359 ft 435 kts 348°
2026-02-18 08:38 46.64953 8.97705 26724 ft 435 kts 348°
2026-02-18 08:38 46.67973 8.97295 27052 ft 434 kts 348°
2026-02-18 08:38 46.70973 8.96885 27499 ft 432 kts 347°
2026-02-18 08:39 46.73962 8.96478 27926 ft 431 kts 347°
2026-02-18 08:39 46.76940 8.96072 28383 ft 428 kts 347°
2026-02-18 08:39 46.79898 8.95672 28869 ft 425 kts 347°
2026-02-18 08:39 46.82800 8.95283 29355 ft 423 kts 347°
2026-02-18 08:40 46.85723 8.94887 29888 ft 419 kts 347°
2026-02-18 08:40 46.88615 8.94492 30294 ft 416 kts 347°
2026-02-18 08:40 46.91498 8.94095 30679 ft 415 kts 346°
2026-02-18 08:40 46.94371 8.93700 31003 ft 415 kts 346°
2026-02-18 08:41 46.97238 8.93311 31405 ft 413 kts 346°
2026-02-18 08:41 47.02923 8.92529 32254 ft 409 kts 346°
2026-02-18 08:41 47.05758 8.92138 32613 ft 408 kts 346°
2026-02-18 08:42 47.08578 8.91748 33073 ft 406 kts 346°
2026-02-18 08:42 47.11385 8.91359 33476 ft 404 kts 345°
2026-02-18 08:42 47.14177 8.90972 33862 ft 403 kts 345°
2026-02-18 08:42 47.16973 8.90582 33993 ft 403 kts 345°
2026-02-18 08:43 47.19765 8.90196 34007 ft 403 kts 345°
2026-02-18 08:43 47.25342 8.89425 34030 ft 403 kts 346°
2026-02-18 08:44 47.31020 8.89722 34004 ft 421 kts 359°
2026-02-18 08:44 47.36802 8.91395 34015 ft 425 kts
2026-02-18 08:45 47.42580 8.93330 34009 ft 426 kts
2026-02-18 08:45 47.51250 8.96268 34008 ft 426 kts
2026-02-18 08:46 47.57031 8.98199 34005 ft 426 kts
2026-02-18 08:46 47.62817 9.00127 33998 ft 426 kts
2026-02-18 08:47 47.68608 9.02060 34002 ft 426 kts
2026-02-18 08:47 47.74362 9.03984 34001 ft 426 kts
2026-02-18 08:48 47.80143 9.05922 34000 ft 426 kts
2026-02-18 08:48 47.85926 9.07865 34004 ft 426 kts
2026-02-18 08:49 47.94594 9.10789 34001 ft 425 kts
2026-02-18 08:50 48.00360 9.12740 33997 ft 425 kts
2026-02-18 08:50 48.06124 9.14694 34000 ft 425 kts
2026-02-18 08:51 48.11880 9.16647 33995 ft 423 kts
2026-02-18 08:51 48.17606 9.18801 33997 ft 428 kts
2026-02-18 08:52 48.23262 9.21469 33992 ft 430 kts
2026-02-18 08:52 48.28949 9.24260 34031 ft 430 kts
2026-02-18 08:53 48.34629 9.27074 33989 ft 429 kts
2026-02-18 08:53 48.43151 9.31284 33993 ft 429 kts
2026-02-18 08:54 48.48823 9.34088 33980 ft 429 kts
2026-02-18 08:54 48.54504 9.36902 33984 ft 429 kts
2026-02-18 08:55 48.60177 9.39722 33985 ft 429 kts
2026-02-18 08:55 48.65849 9.42551 33979 ft 429 kts
2026-02-18 08:56 48.71503 9.45547 33976 ft 438 kts 12°
2026-02-18 08:56 48.74233 9.47730 33982 ft 450 kts 20°
2026-02-18 08:56 48.76889 9.50302 33976 ft 453 kts 22°
2026-02-18 08:57 48.84676 9.58504 33981 ft 457 kts 24°
2026-02-18 08:58 48.89859 9.64082 33983 ft 456 kts 24°
2026-02-18 08:58 48.95055 9.69643 34002 ft 457 kts 24°
2026-02-18 08:59 49.00266 9.75206 33991 ft 457 kts 24°
2026-02-18 08:59 49.05443 9.80742 33994 ft 458 kts 24°
2026-02-18 09:00 49.10652 9.86332 34029 ft 458 kts 24°
2026-02-18 09:00 49.15856 9.91930 33992 ft 460 kts 25°
2026-02-18 09:01 49.21091 9.97577 33993 ft 461 kts 25°
2026-02-18 09:01 49.28943 10.06079 33994 ft 461 kts 25°
2026-02-18 09:02 49.34174 10.11761 33991 ft 461 kts 25°
2026-02-18 09:02 49.39411 10.17464 33992 ft 461 kts 25°
2026-02-18 09:03 49.44635 10.23169 33993 ft 461 kts 25°
2026-02-18 09:03 49.48981 10.27925 34002 ft 461 kts 25°
2026-02-18 09:04 49.54208 10.33660 34000 ft 461 kts 25°
2026-02-18 09:04 49.59430 10.39406 34003 ft 461 kts 25°
2026-02-18 09:05 49.67230 10.48018 34008 ft 459 kts 25°
2026-02-18 09:06 49.72425 10.53767 34037 ft 459 kts 25°
2026-02-18 09:06 49.77811 10.58649 33998 ft 449 kts 18°
2026-02-18 09:07 49.83340 10.63122 33999 ft 448 kts 17°
2026-02-18 09:07 49.88882 10.67516 33998 ft 448 kts 17°
2026-02-18 09:08 49.94425 10.71921 34005 ft 448 kts 17°
2026-02-18 09:08 49.99977 10.76350 33989 ft 448 kts 17°
2026-02-18 09:09 50.05552 10.80701 33985 ft 448 kts 17°
2026-02-18 09:09 50.13914 10.87253 34007 ft 448 kts 17°
2026-02-18 09:10 50.19462 10.91619 33963 ft 450 kts 17°
2026-02-18 09:10 50.25049 10.96032 33964 ft 450 kts 17°
2026-02-18 09:11 50.30646 11.00464 33960 ft 450 kts 17°
2026-02-18 09:11 50.36235 11.04897 34004 ft 450 kts 17°
2026-02-18 09:12 50.39009 11.07109 33703 ft 444 kts 17°
2026-02-18 09:12 50.41756 11.09301 32969 ft 442 kts 17°
2026-02-18 09:12 50.44496 11.11484 31967 ft 442 kts 17°
2026-02-18 09:12 50.47242 11.13671 30926 ft 443 kts 17°
2026-02-18 09:13 50.49990 11.15866 29830 ft 444 kts 17°
2026-02-18 09:13 50.55516 11.20291 27074 ft 448 kts 18°
2026-02-18 09:13 50.58259 11.22489 25619 ft 448 kts 18°
2026-02-18 09:14 50.61011 11.24707 24119 ft 440 kts 19°
2026-02-18 09:14 50.63714 11.26892 22314 ft 433 kts 19°
2026-02-18 09:14 50.66365 11.29038 20700 ft 420 kts 20°
2026-02-18 09:14 50.68940 11.31122 19128 ft 411 kts 20°
2026-02-18 09:15 50.71442 11.33146 17498 ft 400 kts 20°
2026-02-18 09:15 50.73886 11.35122 15937 ft 390 kts 21°
2026-02-18 09:15 50.76282 11.37061 14438 ft 382 kts 22°
2026-02-18 09:15 50.78590 11.38936 13658 ft 360 kts 22°
2026-02-18 09:16 50.80754 11.40698 13135 ft 343 kts 22°
2026-02-18 09:16 50.82870 11.42414 12620 ft 342 kts 22°
2026-02-18 09:16 50.84994 11.44132 12106 ft 343 kts 22°
2026-02-18 09:16 50.87116 11.45856 11582 ft 341 kts 23°
2026-02-18 09:17 50.89226 11.47575 11074 ft 340 kts 23°
2026-02-18 09:17 50.93285 11.50897 10571 ft 311 kts 23°
2026-02-18 09:17 50.95154 11.52433 10477 ft 293 kts 23°
2026-02-18 09:18 50.96915 11.53878 10385 ft 277 kts 22°
2026-02-18 09:18 50.98587 11.55247 10274 ft 265 kts 22°
2026-02-18 09:18 51.00199 11.56567 10168 ft 256 kts 22°
2026-02-18 09:18 51.01761 11.57844 10060 ft 257 kts 22°
2026-02-18 09:19 51.03354 11.59145 9944 ft 258 kts 22°
2026-02-18 09:19 51.04951 11.60453 9595 ft 259 kts 22°
2026-02-18 09:19 51.06547 11.61764 9217 ft 257 kts 23°
2026-02-18 09:19 51.08127 11.63064 8883 ft 255 kts 23°
2026-02-18 09:20 51.09695 11.64356 8554 ft 253 kts 23°
2026-02-18 09:20 51.11258 11.65646 8231 ft 252 kts 24°
2026-02-18 09:20 51.12809 11.66925 7910 ft 251 kts 24°
2026-02-18 09:20 51.14333 11.68263 7590 ft 252 kts 33°
2026-02-18 09:21 51.15776 11.69876 7297 ft 253 kts 25°
2026-02-18 09:21 51.18956 11.72230 6599 ft 251 kts 22°
2026-02-18 09:21 51.20528 11.73432 6271 ft 249 kts 23°
2026-02-18 09:22 51.22061 11.74644 5957 ft 248 kts 24°
2026-02-18 09:22 51.23592 11.75881 5623 ft 246 kts 24°
2026-02-18 09:22 51.26616 11.78366 5004 ft 243 kts 25°
2026-02-18 09:23 51.28117 11.79601 4688 ft 242 kts 25°
2026-02-18 09:23 51.29609 11.80832 4366 ft 241 kts 25°
2026-02-18 09:23 51.31091 11.82063 4054 ft 240 kts 25°
2026-02-18 09:23 51.32566 11.83294 3747 ft 239 kts 25°
2026-02-18 09:24 51.34035 11.84520 3434 ft 238 kts 25°
2026-02-18 09:24 51.35500 11.85744 3130 ft 237 kts 25°
2026-02-18 09:24 51.36985 11.86983 2977 ft 245 kts 25°
2026-02-18 09:24 51.38412 11.88369 2936 ft 235 kts 41°
2026-02-18 09:25 51.39289 11.90480 2945 ft 222 kts 61°
2026-02-18 09:25 51.39954 11.94877 2957 ft 188 kts 84°
2026-02-18 09:25 51.40036 11.96866 2942 ft 172 kts 83°
2026-02-18 09:26 51.40120 11.98693 2965 ft 156 kts 82°
2026-02-18 09:26 51.40205 12.00367 2957 ft 148 kts 82°
2026-02-18 09:26 51.40292 12.02013 2839 ft 148 kts 82°
2026-02-18 09:26 51.40372 12.03651 2622 ft 147 kts 82°
2026-02-18 09:27 51.40448 12.05284 2427 ft 145 kts 82°
2026-02-18 09:27 51.40522 12.06883 2216 ft 145 kts 83°
2026-02-18 09:27 51.40599 12.08513 1985 ft 148 kts 82°
2026-02-18 09:27 51.40675 12.10155 1786 ft 148 kts 82°
2026-02-18 09:28 51.40752 12.11784 1576 ft 149 kts 83°
2026-02-18 09:28 51.40829 12.13429 1358 ft 148 kts 83°
2026-02-18 09:28 51.40905 12.15066 1138 ft 147 kts 83°
2026-02-18 09:28 51.40982 12.16688 960 ft 145 kts 84°
2026-02-18 09:29 51.41058 12.18299 752 ft 144 kts 83°
2026-02-18 09:29 51.41205 12.21431 464 ft 134 kts 83°
2026-02-18 09:29 51.41268 12.22746 467 ft 97 kts 85°
2026-02-18 09:30 51.41306 12.23566 472 ft 52 kts 86°
2026-02-18 09:30 51.41293 12.23978 470 ft 32 kts 107°
2026-02-18 09:30 51.41205 12.24287 469 ft 25 kts 117°
2026-02-18 09:30 51.41173 12.24410 474 ft 0 kts 98°
2026-02-18 09:31 51.41173 12.24437 469 ft 8 kts 89°
2026-02-18 09:31 51.41172 12.24545 468 ft 10 kts 113°
2026-02-18 09:31 51.41116 12.24580 468 ft 4 kts 169°
2026-02-18 09:31 51.41115 12.24581 474 ft 0 kts 168°
2026-02-18 09:32 51.41111 12.24580 474 ft 3 kts 180°
2026-02-18 09:32 51.41088 12.24520 467 ft 12 kts 261°
2026-02-18 09:32 51.41082 12.24331 472 ft 17 kts 266°
2026-02-18 09:32 51.41042 12.24217 470 ft 10 kts 187°
2026-02-18 09:33 51.40968 12.24224 471 ft 11 kts 176°
2026-02-18 09:33 51.40881 12.24280 470 ft 5 kts 87°
2026-02-18 09:33 51.40883 12.24328 466 ft 4 kts 86°
2026-02-18 09:34 51.40885 12.24358 471 ft 2 kts 86°
2026-02-18 09:34 51.40885 12.24366 471 ft 1 kts 86°
2026-02-18 09:34 51.40884 12.24351 471 ft 1 kts 86°
2026-02-18 09:34 51.40884 12.24342 471 ft 1 kts 86°
2026-02-18 09:35 51.40884 12.24340 471 ft 0 kts 86°